Regional Weather Roundup
Issued by NWS Charleston, SC

Current Version | Previous Version | Graphics & Text | Print | Product List | Glossary On
Versions: 1 2 3 4 5 6 7 8 9 10 11 12 13 14 15 16 17 18 19 20 21 22 23 24 25 26 27 28 29 30 31 32 33 34 35 36 37 38 39 40 41 42 43 44 45 46 47 48 49 50
000
ASUS42 KCHS 240310
RWRCHS

REGIONAL WEATHER ROUNDUP
NATIONAL WEATHER SERVICE CHARLESTON SC
1100 PM EDT THU OCT 23 2014

NOTE: "FAIR" INDICATES FEW OR NO CLOUDS BELOW 12,000 FEET WITH NO
SIGNIFICANT WEATHER AND/OR OBSTRUCTIONS TO VISIBILITY.

NOT ALL STATIONS ARE QUALITY CONTROLLED BY THE NATIONAL
WEATHER SERVICE. USE DATA WITH CAUTION...ESPECIALLY
DEWPOINT OBSERVATIONS.

SCZ027-030-031-034>040-042>050-240400-
...SOUTH CAROLINA...

CITY           SKY/WX    TMP DP  RH WIND       PRES   REMARKS
N CHARLESTON   CLEAR     55  48  77 CALM      30.04R
WATERFRONT PRK   N/A     59 N/A N/A W3          N/A
FORT JOHNSON   NOT AVBL
JOHNS ISLAND   CLEAR     52  50  93 CALM      30.05S
PINOPOLIS      NOT AVBL
MONCKS CORNER  FAIR      50  50 100 CALM      30.04R
SUMMERVILLE    FAIR      48  48 100 CALM      30.05S
BEAUFORT MCAS  CLEAR     52  48  86 SW3       30.06R
BEAUFORT ARPT  FAIR      54  54 100 CALM      30.05S
HILTON HEAD IS NOT AVBL
GEORGETOWN     NOT AVBL
WALTERBORO     CLEAR     46 N/A N/A CALM      30.06S
ORANGEBURG     PTCLDY    49  46  90 CALM      30.05R
BARNWELL       FAIR      46  45  93 CALM      30.06S
AIKEN          FAIR      48  43  81 CALM      30.08S
MANNING        FAIR      46 N/A N/A CALM      30.04R
KINGSTREE      NOT AVBL
COLUMBIA       PTCLDY    50  45  83 S3        30.04R
SUMTER         PTCLDY    51  45  79 SW3       30.02S
FLORENCE       CLEAR     50  45  83 CALM      30.02S
MYRTLE BEACH   CLEAR     54  46  76 W3        30.03R
N MYRTLE BEACH CLEAR     54  47  77 W5        30.02R

$$

GAZ063-065-086>088-099>101-113>116-118-119-134-136>141-150-240400-
...GEORGIA...

CITY           SKY/WX    TMP DP  RH WIND       PRES   REMARKS
SAVANNAH ARPT  PTCLDY    54  48  80 CALM      30.06S
HUNTER AAF     CLEAR     51  48  89 SE2       30.04S
FORT STEWART   CLEAR     49  46  88 CALM      30.04S
STATESBORO     NOT AVBL
SYLVANIA       CLEAR     53  52  96 CALM      30.06S
CLAXTON        FAIR      48  48 100 CALM      30.06S
THOMSON        CLEAR     49  49 100 CALM      30.09F
AUGUSTA-BUSH   CLEAR     45  42  89 CALM      30.05F
AUGUSTA-DANIEL CLEAR     60  44  55 NW3       30.05F
SWAINSBORO     FAIR      50  46  87 MISG      30.06S
VIDALIA        PTCLDY    54  46  76 CALM      30.06S
ALMA           PTCLDY    48  46  93 CALM      30.05S
WAYCROSS       CLEAR     53  52  95 CALM      30.06R
JESUP          FAIR      50  50 100 CALM      30.06F
BRUNSWICK        N/A     52  48  87 CALM      30.06S VSB 1
SAINT SIMONS   CLEAR     55  51  86 CALM      30.05S

$$

SCZ027-028-034-036>038-045-046-048>050-GAZ119-141-240400-
...LAKE AND SUPPLEMENTAL COASTAL OBSERVATIONS...

STATION/POSITION TIME  TEMP    WIND        PRES    WAVE   SWELL
                       AIR SEA DIR/SP/G            HT/PER HT/PER/DIR
                 (UTC) (F)     (DEG/KT/KT) (MB)    (FT/S) (FT/S/D)
UPR LAKE MARION  NOT AVBL
WINYAH BAY       0200   58     290/  3     1016.0S
LAKE MURRAY      0200   58     310/  1/  3 1016.9R
ACE BASIN NERRS  0200   52        CALM     1017.0S
FORT PULASKI     0300   61     150/  2/  3 1017.8F
SAPELO ISLAND    NOT AVBL

$$

ANZ835-935-AMZ111-154-330-350-352-354-374-450-454-472-240400-
...C-MAN AND BUOY OBSERVATIONS...

STATION/POSITION TIME  TEMP    WIND        PRES    WAVE   SWELL
                       AIR SEA DIR/SP/G            HT/PER HT/PER/DIR
                 (UTC) (F)     (DEG/KT/KT) (MB)    (FT/S) (FT/S/D)
FOLLY BEACH CMAN 0200   62     240/  3/  3 1017.5R
BUOY 41004       0300   69 78  310/ 12/ 16 1016.5R   2/ 9   2/ 9
BUOY 41008       0300   68 75  340/  8/ 10 1017.6R   2/10   2/ 90/10
5E ST. MARYS GA  0300      76                N/A     2/ 5
FRYING PAN BUOY  0300   67 74  310/ 16/ 19 1016.7R   3/11   2/100/11
BUOY 41025       0300   66     300/ 19/ 23 1013.6R   5/ 5   2/ 50/ 9
CAPE LOOKOUT NC  0200   66     290/ 12/ 15 1014.7R
BUOY 41002       0224   70 78  290/ 12/ 16 1015.8R   7/11   7/11
BUOY 41010       0300   74 81   40/ 10/ 12 1016.2R   3/ 8   3/ 30/ 8
BUOY 41012       NOT AVBL
ST AUGUSTINE FL  0300   68      20/  7/  9 1018.1S
CAPERS NEARSHORE NOT AVBL
FRIPP NEARSHORE  NOT AVBL


$$



USA.gov is the U.S. government's official web portal to all federal, state and local government web resources and services.